This demonstration page uses our WeatherBlox Daily Observations layout. Learn more.

Left ArrowRight Arrow

41.86663, -103.66717

Hourly Observations for April 2, 2018

Temp ( °F °C ) Dew Point ( °F °C ) Humidity (%) Winds ( mph kmh ) Pressure ( in mb ) Visibility ( mi km ) Precip ( " mm )
12:53 am 00:53 Clear 32 undefined 27 -2.8 82 82 E 14 22 29.70 1006 10 16 N/A
1:53 am 01:53 Clear 32 undefined 27 -2.8 82 82 ESE 14 22 29.66 1005 10 16 N/A
2:53 am 02:53 Clear 32 undefined 27 -2.8 82 82 E 12 19 29.63 1003 10 16 N/A
3:53 am 03:53 Clear 32 undefined 28 -2.2 85 85 E 12 19 29.58 1002 10 16 N/A
4:53 am 04:53 Clear 31 -0.6 27 -2.8 85 85 E 10 17 29.57 1001 10 16 N/A
5:53 am 05:53 Clear 30 -1.1 26 -3.3 85 85 SE 9 15 29.54 1000 10 16 N/A
6:53 am 06:53 Sunny 29 -1.7 26 -3.3 89 89 E 8 13 29.56 1001 10 16 N/A
7:53 am 07:53 Sunny 30 -1.1 26 -3.3 85 85 ESE 8 13 29.56 1001 10 16 N/A
8:53 am 08:53 Sunny 34 1.1 28 -2.2 79 79 E 8 13 29.55 1001 10 16 N/A
9:53 am 09:53 Sunny 36 2.2 31 -0.6 82 82 ESE 8 13 29.53 1000 10 16 N/A
10:53 am 10:53 Sunny 40 4.4 32 undefined 73 73 ESE 9 15 29.50 999 10 16 N/A
11:53 am 11:53 Sunny 51 10.6 39 3.9 64 64 ESE 3 6 29.45 997 10 16 N/A
12:53 pm 12:53 Sunny 61 16.1 37 2.8 41 41 WNW 5 7 29.40 996 10 16 N/A
1:53 pm 13:53 Sunny 65 18.3 34 1.1 32 32 W 15 24 29.36 994 10 16 N/A
2:53 pm 14:53 Sunny 64 17.8 35 1.7 34 34 N N/A 29.36 994 10 16 N/A
3:53 pm 15:53 Mostly Cloudy 63 17.2 33 0.6 33 33 NW 5 7 29.35 994 10 16 N/A
4:53 pm 16:53 Cloudy 48 8.9 35 1.7 61 61 NE 24 39 29.42 996 10 16 N/A
5:53 pm 17:53 Cloudy 45 7.2 33 0.6 63 63 NE 24 39 29.44 997 10 16 N/A
6:53 pm 18:53 Cloudy 43 6.1 32 undefined 65 65 NE 24 39 29.48 998 10 16 N/A
7:53 pm 19:53 Cloudy with Light Rain 34 1.1 29 -1.7 82 82 NE 28 44 29.57 1002 10 16 N/A
8:53 pm 20:53 Cloudy 33 0.6 29 -1.7 85 85 NW 14 22 29.69 1005 10 16 N/A
8:59 pm 20:59 Cloudy 33 0.6 28 -2.2 82 82 NNW 13 20 29.77 1008 10 16 N/A
9:07 pm 21:07 Cloudy with Light Snow 32 undefined 28 -2.2 85 85 N 15 24 29.77 1008 4 6 N/A
9:12 pm 21:12 Cloudy with Light Snow 32 undefined 28 -2 87 87 ENE 15 24 29.74 1007 2 3 N/A
9:22 pm 21:22 Cloudy with Light Snow 30 -1 28 -2 93 93 NE 9 15 29.74 1007 3 5 N/A
9:32 pm 21:32 Cloudy 32 undefined 29 -1.7 88 88 NNE 10 17 29.74 1007 9 14 0.01 0.25
9:53 pm 21:53 Cloudy 31 -0.6 27 -2.8 85 85 NNE 6 9 29.70 1006 10 16 0.01 0.25
10:29 pm 22:29 Cloudy with Light Snow 30 -1.1 25 -3.9 82 82 N 6 9 29.83 1010 6 10 N/A
10:34 pm 22:34 Cloudy with Light Snow 30 -1.1 26 -3.3 85 85 VRB 5 7 29.83 1010 3 4 N/A
10:42 pm 22:42 Mostly Cloudy with Light Snow 28 -2 27 -3 93 93 NNW 5 7 29.83 1010 1 2 N/A
10:51 pm 22:51 Cloudy with Light Snow 28 -2 27 -3 93 93 ENE 8 13 29.83 1010 1 1 0.02 0.51
10:53 pm 22:53 Cloudy with Snow 28 -2.2 27 -2.8 96 96 ENE 8 13 29.74 1007 1 1 0.03 0.76
11:00 pm 23:00 Cloudy with Snow 28 -2 27 -3 93 93 ENE 10 17 29.83 1010 1 1 N/A
11:05 pm 23:05 Cloudy with Light Snow 28 -2.2 26 -3.3 92 92 ENE 10 17 29.83 1010 1 2 0.02 0.51
11:10 pm 23:10 Cloudy with Light Snow 28 -2 27 -3 93 93 NE 6 9 29.83 1010 3 5 N/A
11:45 pm 23:45 Cloudy 27 -2.8 25 -3.9 92 92 N N/A 29.85 1011 10 16 0.02 0.51
11:53 pm 23:53 Cloudy 27 -2.8 24 -4.4 89 89 N 8 13 29.72 1007 10 16 0.02 0.51

Powered by AerisWeather